Tracking 19396 objects as of 12-Dec-2018
HD Live streaming from Space Station
objects crossing your sky now

HORIZONS 3E

Track HORIZONS 3E now!


NORAD ID: 43633
Int'l Code: 2018-074B
Perigee: 35,792.2 km
Apogee: 35,795.2 km
Inclination: 0.1 °
Period: 1,436.1 minutes
Semi major axis: 42164 km
RCS: Unknown
Launch date: September 25, 2018
Source: Japan (JPN)
Launch site: FRENCH GUIANA (FRGUI)
aabbcc
Your satellite tracking list
Your tracking list is empty




NASA's NSSDC Master Catalog

Two Line Element Set (TLE):
1 43633U 18074B   18345.61379319 -.00000066  00000-0  00000+0 0  9991
2 43633   0.0658 122.7533 0000357 232.7992 109.8834  1.00271963   846
Source of the keplerian elements: AFSPC